TimeEDT,TemperatureF,Dew PointF,Humidity,Sea Level PressureIn,VisibilityMPH,Wind Direction,Wind SpeedMPH,Gust SpeedMPH,PrecipitationIn,Events,Conditions,WindDirDegrees,DateUTC
12:54 AM,42.1,37.9,85,30.32,10.0,Calm,Calm,-,N/A,,Mostly Cloudy,0,2012-10-09 04:54:00
1:28 AM,42.8,37.4,81,30.31,10.0,Calm,Calm,-,N/A,,Overcast,0,2012-10-09 05:28:00
1:54 AM,41.0,37.9,89,30.33,10.0,Calm,Calm,-,N/A,,Overcast,0,2012-10-09 05:54:00
2:17 AM,39.2,37.4,93,30.31,10.0,Calm,Calm,-,N/A,,Scattered Clouds,0,2012-10-09 06:17:00
2:38 AM,39.2,35.6,87,30.31,10.0,Calm,Calm,-,N/A,,Mostly Cloudy,0,2012-10-09 06:38:00
2:54 AM,39.9,37.0,89,30.31,7.0,Calm,Calm,-,N/A,,Overcast,0,2012-10-09 06:54:00
3:08 AM,39.2,37.4,93,30.30,1.8,Calm,Calm,-,N/A,,Overcast,0,2012-10-09 07:08:00
3:23 AM,39.2,37.4,93,30.30,0.8,Calm,Calm,-,N/A,,Mist,0,2012-10-09 07:23:00
3:54 AM,39.0,37.0,93,30.32,0.5,Calm,Calm,-,N/A,Fog,Fog,0,2012-10-09 07:54:00
4:03 AM,39.2,37.4,93,30.31,0.2,Calm,Calm,-,N/A,Fog,Fog,0,2012-10-09 08:03:00
4:40 AM,39.2,37.4,93,30.32,0.5,Calm,Calm,-,N/A,Fog,Fog,0,2012-10-09 08:40:00
5:35 AM,37.4,35.6,93,30.32,1.5,Calm,Calm,-,N/A,,Overcast,0,2012-10-09 09:35:00
5:54 AM,37.0,36.0,96,30.33,1.2,Calm,Calm,-,N/A,,Overcast,0,2012-10-09 09:54:00
6:07 AM,37.4,35.6,93,30.32,0.8,Calm,Calm,-,N/A,,Overcast,0,2012-10-09 10:07:00
6:33 AM,37.4,35.6,93,30.31,1.5,Calm,Calm,-,N/A,,Overcast,0,2012-10-09 10:33:00
6:37 AM,37.4,35.6,93,30.32,3.0,Calm,Calm,-,N/A,,Overcast,0,2012-10-09 10:37:00
6:54 AM,37.9,35.1,89,30.33,7.0,Calm,Calm,-,N/A,,Overcast,0,2012-10-09 10:54:00
7:54 AM,39.0,36.0,89,30.33,10.0,Calm,Calm,-,N/A,,Overcast,0,2012-10-09 11:54:00
8:54 AM,41.0,37.0,86,30.33,10.0,Calm,Calm,-,N/A,,Overcast,0,2012-10-09 12:54:00
9:10 AM,42.8,37.4,81,30.31,10.0,Calm,Calm,-,N/A,,Overcast,0,2012-10-09 13:10:00
9:37 AM,42.8,37.4,81,30.31,10.0,Calm,Calm,-,N/A,,Overcast,0,2012-10-09 13:37:00
9:54 AM,43.0,37.9,82,30.32,10.0,Calm,Calm,-,N/A,,Overcast,0,2012-10-09 13:54:00
10:31 AM,46.4,39.2,76,30.31,10.0,South,3.5,-,N/A,,Overcast,180,2012-10-09 14:31:00
10:54 AM,46.9,39.9,77,30.32,10.0,Calm,Calm,-,N/A,,Overcast,0,2012-10-09 14:54:00
11:54 AM,51.1,41.0,68,30.30,10.0,Calm,Calm,-,N/A,,Overcast,0,2012-10-09 15:54:00
12:54 PM,53.1,42.1,66,30.27,10.0,Calm,Calm,-,N/A,,Overcast,0,2012-10-09 16:54:00
1:51 PM,53.6,42.8,67,30.23,10.0,Calm,Calm,-,N/A,,Overcast,0,2012-10-09 17:51:00
1:54 PM,54.0,43.0,66,30.25,10.0,Calm,Calm,-,N/A,,Overcast,0,2012-10-09 17:54:00
2:10 PM,53.6,42.8,67,30.23,10.0,Calm,Calm,-,N/A,,Overcast,0,2012-10-09 18:10:00
2:50 PM,53.6,42.8,67,30.22,10.0,Calm,Calm,-,N/A,,Overcast,0,2012-10-09 18:50:00
2:54 PM,54.0,42.1,64,30.23,10.0,Calm,Calm,-,N/A,,Overcast,0,2012-10-09 18:54:00
3:08 PM,53.6,42.8,67,30.22,10.0,Calm,Calm,-,N/A,,Overcast,0,2012-10-09 19:08:00
3:33 PM,53.6,42.8,67,30.21,10.0,Calm,Calm,-,N/A,,Overcast,0,2012-10-09 19:33:00
3:54 PM,54.0,42.1,64,30.22,10.0,Calm,Calm,-,N/A,,Overcast,0,2012-10-09 19:54:00
4:54 PM,54.0,43.0,66,30.21,10.0,Calm,Calm,-,N/A,,Overcast,0,2012-10-09 20:54:00
5:38 PM,53.6,44.6,72,30.19,10.0,Calm,Calm,-,N/A,,Overcast,0,2012-10-09 21:38:00
5:54 PM,53.1,44.1,71,30.21,10.0,Calm,Calm,-,N/A,,Overcast,0,2012-10-09 21:54:00
6:54 PM,52.0,45.0,77,30.21,10.0,Calm,Calm,-,N/A,,Overcast,0,2012-10-09 22:54:00
7:29 PM,51.8,46.4,82,30.19,10.0,Calm,Calm,-,N/A,,Overcast,0,2012-10-09 23:29:00
7:52 PM,51.8,46.4,82,30.18,10.0,Calm,Calm,-,N/A,,Overcast,0,2012-10-09 23:52:00
7:54 PM,51.1,46.0,83,30.20,10.0,Calm,Calm,-,N/A,,Overcast,0,2012-10-09 23:54:00
8:54 PM,51.1,46.0,83,30.19,10.0,Calm,Calm,-,N/A,,Overcast,0,2012-10-10 00:54:00
9:54 PM,51.1,46.0,83,30.19,10.0,Calm,Calm,-,N/A,,Overcast,0,2012-10-10 01:54:00
10:54 PM,51.1,46.0,83,30.17,10.0,Calm,Calm,-,N/A,,Overcast,0,2012-10-10 02:54:00
11:06 PM,51.8,46.4,82,30.16,10.0,Variable,5.8,-,N/A,,Overcast,0,2012-10-10 03:06:00
11:36 PM,51.8,44.6,76,30.15,10.0,Calm,Calm,-,N/A,,Overcast,0,2012-10-10 03:36:00
11:54 PM,51.1,44.1,77,30.16,10.0,Calm,Calm,-,N/A,,Overcast,0,2012-10-10 03:54:00